{"data":{"norad_id":62477,"epoch":"2026-05-25T04:01:00.951168Z","epoch_age_seconds":64162,"freshness":"FRESH","line1":"1 62477U 24254R   26145.16737212  .00016254  00000+0  59855-3 0  9992","line2":"2 62477  43.0011 304.0849 0001957 281.1431  78.9201 15.27597649 79353","mean_motion":15.27597649,"eccentricity":0.0001957,"inclination_deg":43.0011,"raan_deg":304.0849,"arg_perigee_deg":281.1431,"mean_anomaly_deg":78.9201,"bstar":0.00059855,"rev_number":7935,"period_min":94.265659608907,"perigee_km":481.65352531642,"apogee_km":484.33897287011,"semimajor_km":6861.1332490933,"source":"CELESTRAK","updated_at":"2026-05-25T13:38:19.694454Z"}}